Location: Culleoka
(33.1312°N, 96.4919°W)
Time: 03:42:04
(UTC+00:00)

H-2A R/B - Pass Details

Date: 04 July 2022
Orbit: 577 x 651 km, 98.5° (Epoch: 07 August)

Event Time Altitude Azimuth Distance (km) Brightness Sun altitude
Rises 03:26:03 0° 358° (N) 2,943 6.3 -18.8°
Reaches altitude 10° 03:28:31 10° 345° (NNW) 2,040 5.6 -19.2°
Maximum altitude 03:32:11 26° 290° (WNW) 1,282 4.3 -19.7°
Drops below altitude 10° 03:35:52 10° 234° (SW) 2,048 4.8 -20.2°
Sets 03:38:22 0° 222° (SW) 2,958 5.5 -20.6°
